This is the latest recevied weather packets stored in our database for station/object OH2HCY-3. If no packets are shown the sender has not sent any weather packets the latest 10 day(s).
| Time | Temp. | Humidity | Pressure | Rain* | Wind** | Luminosity | Snow |
|---|---|---|---|---|---|---|---|
| 1787902367 | 17.78° C | 81% | 1025.5 hPa | - | - | - | - |
| 1787901239 | 17.22° C | 84% | 1025.4 hPa | - | - | - | - |
| 1787900148 | 16.67° C | 86% | 1025.4 hPa | - | - | - | - |
| 1787899042 | 16.11° C | 88% | 1025.4 hPa | - | - | - | - |
| 1787897922 | 15.56° C | 91% | 1025.4 hPa | - | - | - | - |
| 1787896849 | 15° C | 92% | 1025.6 hPa | - | - | - | - |
| 1787895872 | 14.44° C | 92% | 1025.6 hPa | - | - | - | - |
| 1787894711 | 13.89° C | 92% | 1025.6 hPa | - | - | - | - |
| 1787893667 | 12.78° C | 92% | 1025.8 hPa | - | - | - | - |
| 1787892626 | 11.67° C | 91% | 1025.7 hPa | - | - | - | - |
| 1787891641 | 11.67° C | 91% | 1025.8 hPa | - | - | - | - |
| 1787890490 | 11.11° C | 91% | 1025.9 hPa | - | - | - | - |
| 1787889488 | 11.11° C | 91% | 1025.8 hPa | - | - | - | - |
| 1787888517 | 11.11° C | 91% | 1025.9 hPa | - | - | - | - |
| 1787887532 | 11.67° C | 91% | 1026 hPa | - | - | - | - |
| 1787886522 | 11.11° C | 91% | 1026 hPa | - | - | - | - |
| 1787885383 | 11.67° C | 91% | 1026 hPa | - | - | - | - |
| 1787884407 | 11.67° C | 91% | 1026 hPa | - | - | - | - |
| 1787883310 | 11.67° C | 91% | 1026 hPa | - | - | - | - |
| 1787882172 | 11.67° C | 91% | 1026.1 hPa | - | - | - | - |
| 1787881128 | 12.22° C | 91% | 1026.1 hPa | - | - | - | - |
| 1787880132 | 12.22° C | 91% | 1026.2 hPa | - | - | - | - |
| 1787879101 | 12.22° C | 91% | 1026.3 hPa | - | - | - | - |
| 1787878135 | 11.67° C | 91% | 1026.3 hPa | - | - | - | - |
| 1787878133 | 11.67° C | 91% | 1026.3 hPa | - | - | - | - |
* Rain since midnight (hover to see other rain measurements)
** Current wind speed in m/s (hover to see current wind gust speed)